Theta_e
326 327 327 326 326 325 324 325 325 325 324 321 322 321 321 320 319 320 321 322 321 321 319 316 314 312 311 310 309 308 307 306 305 305 305 304 303 301 299 297 297 296 295 295
327 328 327 325 325 326 326 325 326 325 325 324 323 324 324 323 322 320 320 321 320 320 318 314 313 311 310 309 308 308 306 305 304 304 303 303 302 299 297 296 296 294 293 293
328 327 326 326 325 325 325 325 325 326 325 325 324 325 325 324 324 322 320 320 320 319 317 314 312 310 310 309 308 307 305 304 302 301 300 300 299 298 298 296 295 294 292 292
326 325 325 325 324 324 326 324 324 325 325 327 325 330 326 325 324 324 320 319 320 319 318 315 313 311 310 310 308 306 305 303 301 300 300 301 301 301 297 295 293 293 292 291
326 324 324 325 326 325 325 323 324 325 325 326 326 327 327 325 324 324 320 319 318 319 318 315 313 311 310 309 308 306 303 301 299 298 299 299 298 297 295 294 293 293 292 291
324 323 322 323 323 323 323 324 323 324 325 329 326 326 328 325 325 323 319 318 318 318 318 315 312 310 310 309 307 305 303 300 298 297 297 297 297 296 295 294 294 293 292 291
325 325 323 322 322 321 322 325 326 325 327 327 322 323 325 322 320 320 320 319 318 317 317 315 313 311 310 308 306 305 302 299 296 296 296 295 295 294 294 293 293 292 292 291
325 326 324 324 322 323 322 324 326 327 329 327 324 325 323 321 319 319 318 318 318 317 316 315 313 310 309 308 306 304 301 298 296 296 294 293 293 293 292 291 292 291 291 290
324 323 321 322 323 322 323 324 321 324 323 326 325 323 323 321 318 318 318 317 317 316 316 315 313 311 309 307 305 302 299 298 295 294 293 292 292 291 291 291 290 290 289 288
317 323 320 319 318 320 321 321 324 328 336 330 324 323 328 326 322 320 319 318 317 316 315 314 314 310 308 305 303 301 299 297 294 293 293 292 291 290 290 290 290 290 289 288
314 318 318 317 317 318 318 321 320 321 324 330 327 328 320 322 319 319 326 320 318 316 315 314 313 309 307 302 301 301 299 295 294 293 293 292 291 290 289 289 289 288 288 287
314 315 319 318 317 317 316 318 318 324 324 323 326 328 320 320 319 316 318 318 318 316 317 313 311 310 304 299 300 298 297 293 293 293 292 292 290 289 289 288 288 287 287 287
315 316 318 317 316 315 317 317 316 316 318 325 325 325 318 316 315 314 316 319 315 315 314 314 311 310 302 299 299 295 294 291 293 292 292 291 290 289 288 287 287 286 286 286
310 313 314 315 314 314 316 316 314 318 326 321 320 319 316 316 316 316 315 317 314 313 313 312 310 309 301 300 295 295 293 291 292 290 290 289 288 286 286 285 284 283 284 283
311 315 312 314 311 310 310 311 311 311 314 317 319 316 316 315 315 316 316 316 315 313 311 309 307 307 301 300 295 295 294 292 292 290 289 287 285 284 283 282 281 281 281 281
308 311 310 310 307 307 309 309 311 311 312 312 312 313 312 313 314 314 315 314 314 313 312 308 306 305 302 301 297 296 295 293 292 291 289 288 286 284 283 282 282 282 281 281
310 311 311 312 308 308 311 313 311 310 310 310 312 312 312 312 313 314 314 314 313 313 313 310 307 305 303 302 298 297 296 294 293 292 290 289 287 286 286 285 285 284 283 284
309 310 310 312 308 311 308 307 307 308 308 309 310 310 311 312 312 312 314 314 314 313 313 311 308 305 303 302 300 298 296 294 294 292 291 290 289 288 287 287 286 285 285 284
308 308 312 311 311 308 307 307 307 306 308 309 309 310 310 311 312 313 311 309 312 314 313 310 307 306 304 302 299 297 296 295 294 292 292 291 290 289 288 287 287 286 285 284
308 309 310 311 310 309 308 307 310 311 310 309 309 310 311 311 315 313 312 310 308 312 310 308 306 304 303 301 299 297 296 295 293 292 292 291 290 289 288 287 287 286 285 284
309 310 312 313 312 311 310 308 308 310 310 309 308 308 308 310 312 311 310 311 310 312 309 306 304 304 302 300 298 297 296 295 293 292 292 291 290 289 288 287 286 285 284 282
306 308 310 309 310 309 310 310 311 311 310 308 308 308 309 309 310 310 310 310 309 309 307 304 304 304 302 300 299 298 297 295 294 293 292 291 290 288 287 287 286 285 284 282
310 308 307 309 310 309 308 308 308 308 309 309 307 307 307 309 310 310 311 309 308 307 306 305 304 303 302 300 299 299 298 296 295 293 291 290 289 288 287 286 285 284 283 282
308 306 308 308 307 307 306 307 306 307 307 307 306 306 307 308 309 310 309 308 307 307 306 305 304 302 301 300 299 299 298 296 294 292 291 290 289 287 287 285 285 284 284 283
303 307 306 306 306 306 307 306 306 306 306 305 305 305 306 308 308 309 309 308 307 305 304 304 303 302 301 300 299 298 296 294 293 292 291 290 288 286 286 286 284 284 284 283
305 306 308 309 306 307 307 306 304 304 306 306 306 306 306 307 309 308 308 306 305 305 303 303 302 301 300 298 297 296 294 293 292 292 290 289 287 286 286 285 282 281 281 280
Wind_Speed
18 15 18 19 18 17 19 23 20 18 5 8 16 21 20 18 15 16 17 18 20 21 21 24 23 21 19 18 17 16 14 12 10 8 7 5 4 4 5 6 7 9 10 11
20 24 22 19 18 16 16 20 21 21 21 13 16 22 20 21 20 21 20 19 20 19 20 21 23 22 21 21 19 17 15 13 11 9 7 5 5 5 5 5 6 9 9 11
26 21 17 22 22 21 18 22 21 23 19 14 13 27 26 23 26 22 20 19 19 21 22 21 24 26 24 23 21 19 17 15 12 10 9 8 7 5 3 3 3 5 7 8
21 25 28 22 21 17 21 19 21 21 17 19 18 23 22 20 19 27 20 19 19 21 22 22 23 26 26 24 22 20 18 15 12 9 8 6 3 4 3 2 2 2 5 6
23 16 15 24 31 23 23 16 15 16 17 19 25 14 25 19 21 18 18 20 19 21 24 23 21 26 25 23 22 20 17 14 11 9 9 8 7 6 4 3 2 1 3 5
20 19 8 16 15 17 16 12 13 14 14 17 22 19 32 17 16 17 18 18 20 20 21 20 26 26 25 23 22 20 18 14 11 9 8 8 8 6 5 3 3 2 3 4
20 22 20 13 11 8 10 12 5 8 10 18 15 16 22 4 3 5 12 18 18 18 19 21 22 24 26 25 24 22 20 16 13 11 9 9 8 7 5 4 3 3 3 4
14 14 17 21 18 14 17 18 9 11 15 14 14 13 15 4 5 6 3 7 15 17 18 21 22 27 27 26 25 22 20 17 15 13 11 9 8 6 6 4 4 5 5 3
8 17 6 3 12 16 15 17 19 19 21 13 13 21 23 13 8 7 9 10 15 19 20 22 22 28 27 26 24 22 21 18 15 14 12 10 8 7 7 6 6 6 5 3
3 6 13 13 11 14 15 13 8 1 5 20 18 18 13 7 8 9 9 14 15 16 18 19 18 26 27 26 22 21 20 18 16 14 12 10 9 8 8 7 7 6 5 5
4 7 12 6 9 13 12 13 14 12 8 4 11 13 10 6 2 10 12 10 10 13 16 18 16 26 25 25 25 22 21 19 18 15 12 11 10 9 8 8 8 7 6 6
5 5 9 19 16 15 11 17 18 11 14 14 15 18 17 17 10 8 6 10 9 12 10 15 18 24 25 23 22 22 20 22 18 16 14 12 11 10 9 9 8 8 7 6
2 3 7 14 19 21 12 15 18 18 13 15 10 9 6 1 3 8 10 9 12 13 15 13 17 18 22 24 22 22 21 22 17 18 16 14 12 11 11 10 8 8 8 6
3 6 13 14 19 9 9 14 18 10 4 12 17 20 25 24 20 13 11 10 14 14 14 11 15 15 21 24 22 24 21 22 19 20 19 18 16 15 12 10 10 11 9 8
8 7 14 16 20 21 23 22 21 23 21 19 19 22 26 22 17 2 16 8 12 15 17 18 17 19 23 25 26 25 24 24 22 22 18 17 16 14 14 12 10 10 9 9
19 14 19 22 27 25 24 23 27 28 25 27 27 27 27 29 24 19 16 17 15 15 18 20 21 21 23 27 27 27 26 25 24 23 20 19 17 15 14 12 11 10 9 9
15 11 12 18 20 20 18 18 23 26 26 26 24 26 27 27 22 23 27 25 25 21 17 20 21 20 25 27 28 29 27 26 26 24 23 21 19 17 15 14 13 12 10 10
19 17 12 15 18 21 20 21 26 28 27 26 23 24 27 24 23 19 18 12 16 20 17 19 16 22 28 28 27 26 27 26 25 24 23 22 20 18 17 15 14 12 11 10
20 17 13 14 17 21 25 26 23 23 23 25 21 20 24 20 20 15 8 8 6 6 10 17 22 22 25 28 27 28 27 26 26 25 24 23 21 20 18 17 15 13 12 10
23 21 14 14 18 20 23 14 19 23 14 9 12 15 17 14 11 9 8 8 5 11 17 20 23 25 26 28 29 28 28 28 27 26 24 23 22 21 19 17 15 13 12 10
11 11 16 15 14 7 14 16 9 11 8 10 13 13 11 8 7 3 15 10 14 14 18 24 27 26 27 28 29 27 27 26 26 26 24 23 22 20 19 17 16 14 12 11
16 12 11 9 9 11 8 7 7 9 10 8 11 15 19 14 5 3 7 9 12 17 21 24 22 22 24 26 27 26 26 26 26 26 25 24 22 20 21 18 16 15 13 11
14 11 8 4 3 5 5 8 7 9 12 8 8 14 14 16 10 5 9 12 14 17 19 21 20 21 22 25 25 25 24 26 27 26 25 24 22 20 21 20 18 16 14 13
9 5 5 7 4 8 8 4 3 5 6 8 9 13 16 14 9 7 10 12 13 14 16 19 21 21 22 24 23 23 25 27 27 26 25 24 23 21 21 19 18 16 15 14
12 6 7 8 10 11 7 3 4 2 3 4 14 14 13 11 5 8 12 11 11 13 16 18 18 19 21 23 22 23 27 28 27 25 25 23 22 22 21 18 17 15 13 13
13 9 7 7 8 7 6 8 8 9 6 10 9 10 6 6 8 7 3 5 7 10 12 15 18 19 21 23 23 25 26 28 27 25 24 23 22 22 21 19 12 8 14 11
Wind_Direction
228 237 237 234 237 248 271 281 281 284 293 240 255 254 246 193 207 210 213 201 195 195 186 171 180 172 168 164 164 159 151 146 142 148 149 138 113 89 63 47 39 29 20 13
245 242 244 264 259 257 264 264 261 267 269 228 254 267 263 251 217 216 215 207 198 189 181 172 177 172 174 172 170 162 155 152 155 153 144 134 126 102 88 60 37 26 18 15
246 249 241 234 250 246 237 253 261 266 275 272 261 266 259 255 254 220 212 213 199 192 184 177 179 181 182 178 171 167 161 157 153 153 144 134 119 107 104 69 46 16 22 18
257 256 253 239 237 245 252 242 253 259 258 261 255 276 269 278 276 220 194 216 197 195 191 183 185 185 187 180 173 168 162 157 154 156 153 159 123 129 102 84 56 35 31 23
238 249 240 246 246 242 250 265 281 269 262 272 256 258 273 253 261 203 201 211 205 199 193 186 187 188 189 177 173 167 161 155 149 149 146 141 128 123 131 119 120 80 43 32
253 271 266 264 259 250 258 249 257 258 255 255 261 251 270 260 259 213 201 213 208 204 191 183 183 187 190 177 172 167 162 152 148 144 140 135 144 144 156 135 174 89 51 27
234 238 240 232 238 209 222 207 231 226 223 244 266 235 239 192 132 54 192 192 202 198 190 182 181 188 185 177 175 169 165 157 154 146 139 139 139 133 132 144 127 115 82 45
271 259 213 209 229 227 211 211 224 246 254 265 305 251 250 35 54 115 224 208 184 190 191 189 183 187 185 182 178 171 165 160 159 151 145 145 140 138 129 119 119 93 84 70
289 255 181 270 225 227 242 216 236 268 272 271 256 270 283 260 184 190 196 185 193 192 190 189 184 185 182 183 178 171 166 162 159 152 151 148 143 144 135 134 118 101 93 74
40 278 280 275 229 246 249 278 253 270 245 239 246 250 255 273 238 192 214 215 206 186 187 188 183 182 183 167 170 170 168 163 160 157 154 152 147 139 137 131 113 106 98 79
70 217 246 257 238 256 244 241 250 265 249 268 273 270 302 55 335 287 194 201 209 203 189 186 180 181 168 158 170 172 169 163 159 159 157 153 150 144 141 130 119 113 100 83
281 310 267 259 268 284 271 264 245 247 253 244 257 263 286 294 301 311 254 192 202 198 176 186 174 182 153 165 175 170 164 161 158 160 158 157 152 155 140 129 120 113 103 92
337 230 285 257 235 228 245 276 258 268 263 234 251 262 211 276 260 270 269 181 194 190 168 189 174 187 147 170 176 169 154 161 156 161 159 158 160 157 141 127 123 116 112 103
50 272 253 263 285 303 288 295 299 294 267 275 265 283 280 278 278 258 254 195 191 190 174 181 170 191 166 174 159 171 169 167 163 162 161 154 165 155 139 132 130 127 119 111
206 226 234 253 271 278 281 278 280 274 266 264 279 279 280 282 290 55 252 205 185 194 181 186 176 184 175 176 177 178 176 171 169 167 162 167 165 154 149 140 137 128 121 116
224 249 255 264 266 265 268 262 254 261 260 264 265 269 264 266 266 261 233 231 199 197 199 194 188 184 182 182 179 180 177 175 173 171 171 173 167 158 152 153 146 145 141 137
251 243 248 255 264 275 269 255 257 263 266 269 268 265 268 269 260 259 250 233 242 245 202 193 187 182 188 190 179 183 177 177 176 174 176 175 171 166 166 165 162 161 160 155
249 247 253 266 282 270 264 263 264 265 264 266 265 262 259 266 260 269 273 266 263 245 203 185 181 182 179 188 180 177 177 178 179 179 178 175 174 174 174 173 173 169 167 165
235 244 256 253 257 266 272 265 264 268 269 281 265 275 274 266 257 248 203 227 300 302 165 167 180 166 170 177 175 175 176 178 179 180 181 178 178 179 178 179 176 174 171 166
230 230 233 246 254 259 259 277 6 319 261 329 354 330 320 309 255 234 315 231 248 162 160 155 164 165 167 170 172 172 176 176 181 181 179 176 180 182 181 179 176 174 170 164
213 224 235 243 249 262 265 289 313 281 326 2 353 357 344 317 291 3 221 182 206 174 155 152 161 162 165 165 168 173 176 178 180 179 176 179 180 177 174 174 176 175 168 165
256 233 236 247 243 265 16 307 298 348 317 335 340 357 341 326 332 335 133 154 157 153 146 158 157 156 158 162 170 172 176 178 176 173 174 177 176 176 177 175 175 175 167 160
262 235 264 281 274 186 275 302 347 319 300 293 344 335 310 314 310 254 149 160 152 146 156 156 151 149 157 166 173 173 173 173 173 169 174 175 175 177 179 177 179 180 177 176
294 277 246 300 320 315 319 59 4 338 335 304 289 295 316 321 298 190 176 172 164 163 158 155 150 156 161 171 176 173 168 173 171 170 173 175 176 177 179 176 183 184 184 184
266 267 260 277 291 311 3 351 316 235 186 279 301 298 306 310 272 195 194 170 168 158 157 156 160 163 165 169 173 168 167 171 171 173 174 174 178 179 177 179 181 188 186 194
257 284 278 277 294 277 285 298 333 308 255 260 284 289 282 297 14 25 148 158 165 153 159 167 162 166 168 170 169 167 172 172 173 174 175 177 176 182 178 174 140 142 169 173